Location: Newark
(17.9939°S, 31.0481°E)
Time: 15:54:21
(UTC+00:00)

OTV 5 (USA 277) - Visible Passes

Search period start: 15 October 2019 00:00
Search period end: 25 October 2019 00:00
Orbit: 310 x 324 km, 54.5° (Epoch: 08 October)

Date Brightness Start Highest point End Pass type
(mag) Time Alt. Az. Time Alt. Az. Time Alt. Az.
16 Oct ? 17:09:36 10° S 17:10:02 12° SSE 17:10:02 12° SSE visible
17 Oct ? 17:23:16 10° SSW 17:24:46 28° SSW 17:24:46 28° SSW visible
18 Oct ? 17:38:20 10° WSW 17:39:36 18° W 17:39:36 18° W visible
19 Oct ? 16:18:21 10° SSW 16:20:50 31° SE 16:23:18 10° ENE visible
20 Oct ? 16:32:43 10° SW 16:35:20 43° NW 16:37:56 10° NNE visible
21 Oct ? 16:49:24 10° WNW 16:49:44 10° WNW 16:50:04 10° NW visible
